Location: Memmingen
(47.9830°N, 10.1733°E)
Time: 12:23:50
(UTC+02:00)

ISS - Visible Passes

Search period start: 13 May 2021 00:00
Search period end: 23 May 2021 00:00
Orbit: 417 x 422 km, 51.6° (Epoch: 13 May)

Date Brightness Start Highest point End Pass type
(mag) Time Alt. Az. Time Alt. Az. Time Alt. Az.
13 May -0.9 00:32:07 10° ENE 00:32:07 10° ENE 00:32:10 10° ENE visible
13 May -2.6 02:05:02 35° NW 02:05:50 43° N 02:09:05 10° ENE visible
13 May -3.3 03:39:37 10° WNW 03:42:58 62° NNE 03:46:20 10° E visible
14 May -2.7 01:18:38 44° NNE 01:18:38 44° NNE 01:21:35 10° ENE visible
14 May -2.9 02:52:10 10° WNW 02:55:28 51° NNE 02:58:47 10° E visible
14 May -3.6 04:29:02 10° WNW 04:32:20 50° SSW 04:35:37 10° SE visible
14 May -3.5 22:50:46 10° SW 22:53:59 44° SSE 22:55:36 24° E visible
15 May -3.0 00:27:28 10° W 00:30:46 54° NNW 00:34:07 10° ENE visible
15 May -2.6 02:04:41 10° WNW 02:07:57 45° N 02:11:14 10° E visible
15 May -3.9 03:41:33 10° WNW 03:44:56 74° SSW 03:48:18 10° ESE visible
15 May -2.9 22:03:41 10° SSW 22:06:39 29° SE 22:09:37 10° E visible
15 May -3.5 23:39:56 10° WSW 23:43:17 67° NNW 23:46:40 10° ENE visible
16 May -2.5 01:17:11 10° WNW 01:20:25 42° N 01:23:40 10° ENE visible
16 May -3.7 02:54:06 10° WNW 02:57:29 81° NNE 03:00:53 10° ESE visible
16 May -2.5 04:31:19 10° W 04:34:01 22° SW 04:36:44 10° SSE visible
16 May -3.8 22:52:27 10° WSW 22:55:49 88° NW 22:59:13 10° ENE visible
17 May -2.5 00:29:37 10° WNW 00:32:53 43° N 00:36:08 10° ENE visible
17 May -3.3 02:06:39 10° WNW 02:10:01 62° NNE 02:13:22 10° E visible
17 May -3.1 03:43:38 10° WNW 03:46:43 33° SW 03:49:47 10° SSE visible
17 May -3.8 22:05:04 10° SW 22:08:24 66° SSE 22:11:45 10° ENE visible
17 May -2.7 23:42:04 10° W 23:45:20 46° N 23:48:37 10° ENE visible
18 May -2.9 01:19:12 10° WNW 01:22:31 51° NNE 01:22:56 47° NE visible
18 May -3.0 22:54:30 10° W 22:57:49 54° NNW 23:01:09 10° ENE visible
19 May -2.7 00:31:43 10° WNW 00:34:59 45° N 00:36:32 26° ENE visible
19 May -1.5 02:08:35 10° WNW 02:09:26 17° WNW 02:09:26 17° WNW visible
19 May -3.4 22:06:57 10° WSW 22:10:19 67° NNW 22:13:40 10° ENE visible
19 May -2.5 23:44:12 10° WNW 23:47:26 42° N 23:50:21 12° ENE visible
20 May -2.6 01:21:08 10° WNW 01:23:16 36° WNW 01:23:16 36° WNW visible
20 May -2.5 22:56:39 10° WNW 22:59:53 43° N 23:03:09 10° ENE visible
21 May -3.4 00:33:40 10° WNW 00:37:02 62° NNE 00:37:12 61° NE visible
21 May -2.6 22:09:05 10° W 22:12:21 46° N 22:15:38 10° ENE visible
21 May -3.0 23:46:13 10° WNW 23:49:31 51° NNE 23:51:10 25° ENE visible
22 May -1.5 01:23:05 10° WNW 01:24:06 18° WNW 01:24:06 18° WNW visible
22 May -2.7 22:58:43 10° WNW 23:01:59 45° N 23:05:10 11° E visible
